OE-5019 Weather Reports


Display with metric or nautical units.
time (UTC)temp
F
wind
direction
speed
MPH
gust
MPH
rain 1hr
in
rain 24hr
in
rain mn
in
humidity
%
barometer
mb
20260903091113 68 303 8.0 19.0 0.00 0.00 0.00 47 1020.2
20260903084112 67 306 7.0 19.0 0.00 0.00 0.00 49 1020.4
20260903081113 64 50 4.0 13.0 0.00 0.00 0.00 65 1021.3
20260903074113 60 80 1.0 4.0 0.00 0.00 0.00 72 1022.4
20260903071113 58 83 2.0 5.0 0.00 0.00 0.00 76 1022.8
20260903064112 55 95 1.0 3.0 0.00 0.00 0.00 84 1023.7
20260903061113 49 251 1.0 2.0 0.00 0.00 0.00 92 1025.1
20260903054112 48 243 1.0 3.0 0.00 0.00 0.00 92 1025.4
20260903051113 48 268 1.0 5.0 0.00 0.00 0.00 92 1024.2
20260903044112 48 288 1.0 4.0 0.00 0.00 0.00 92 1024.2
20260903041112 49 282 1.0 3.0 0.00 0.00 0.00 92 1024.1
20260903031113 50 285 2.0 3.0 0.00 0.00 0.00 91 1024.8
20260903021112 52 284 1.0 2.0 0.00 0.00 0.00 90 1024.4
20260903014112 52 235 1.0 2.0 0.00 0.00 0.00 89 1024.3
20260903011113 52 232 1.0 2.0 0.00 0.00 0.00 90 1024.3
20260903004113 52 260 1.0 2.0 0.00 0.00 0.00 90 1024.4
20260903001512 52 223 0.0 1.0 0.00 0.00 0.00 89 1024.4
20260902234113 52 280 1.0 3.0 0.00 0.00 0.00 89 1024.3
20260902224114 53 296 1.0 4.0 0.00 0.00 0.00 88 1023.0
20260902221113 53 262 1.0 3.0 0.00 0.00 0.00 87 1022.9
20260902214113 53 279 1.0 3.0 0.00 0.00 0.00 86 1022.9
20260902211113 52 272 2.0 6.0 0.00 0.00 0.00 87 1023.2
20260902204114 52 283 1.0 3.0 0.00 0.00 0.00 86 1023.2
20260902201113 52 288 1.0 2.0 0.00 0.00 0.00 86 1023.1
20260902194113 52 276 1.0 3.0 0.00 0.00 0.00 86 1023.2
20260902191113 53 279 1.0 3.0 0.00 0.00 0.00 84 1023.0
20260902184113 54 286 1.0 3.0 0.00 0.00 0.00 83 1021.7
20260902181113 55 274 1.0 2.0 0.00 0.00 0.00 80 1021.2
20260902174113 57 258 1.0 2.0 0.00 0.00 0.00 78 1019.6
20260902171113 59 266 2.0 4.0 0.00 0.00 0.00 76 1019.2
20260902164113 59 265 2.0 4.0 0.00 0.00 0.00 77 1019.1
20260902161113 60 279 2.0 4.0 0.00 0.00 0.00 75 1018.8
20260902154113 63 235 3.0 6.0 0.00 0.00 0.00 71 1018.0
20260902151113 67 238 2.0 5.0 0.00 0.00 0.00 71 1017.0
20260902144113 69 243 1.0 4.0 0.00 0.00 0.00 71 1016.6
20260902141113 71 220 1.0 4.0 0.00 0.00 0.00 63 1016.0
20260902134111 70 236 1.0 4.0 0.00 0.00 0.00 65 1016.4
20260902131113 70 231 1.0 3.0 0.00 0.00 0.00 64 1016.4
20260902124112 70 200 1.0 3.0 0.00 0.00 0.00 65 1017.6
20260902121113 67 201 1.0 4.0 0.00 0.00 0.00 71 1018.2
20260902114113 68 155 1.0 4.0 0.00 0.00 0.00 68 1018.0
20260902111113 69 134 2.0 4.0 0.00 0.00 0.00 63 1017.6
20260902104113 70 101 2.0 6.0 0.00 0.00 0.00 61 1018.7
20260902101113 70 119 2.0 6.0 0.00 0.00 0.00 61 1018.6
20260902094113 68 97 3.0 6.0 0.00 0.00 0.00 65 1019.1